Location: Brockett
(40.8000°S, 175.4500°E)
Time: 23:12:57
(UTC+00:00)

Lacrosse 5 rocket - Visible Passes

Search period start: 05 November 2024 00:00
Search period end: 15 November 2024 00:00
Orbit: 430 x 556 km, 57.0° (Epoch: 05 November)

Date Brightness Start Highest point End Pass type
(mag) Time Alt. Az. Time Alt. Az. Time Alt. Az.
05 Nov 4.3 12:34:08 10° SSW 12:34:54 10° SSW 12:35:39 10° S visible
05 Nov 4.2 15:51:29 10° SSW 15:54:05 16° SSE 15:56:44 10° ESE visible
06 Nov 4.1 10:36:01 11° SSE 10:36:01 11° SSE 10:36:10 10° SSE visible
06 Nov 4.4 12:10:35 10° SSW 12:11:31 11° SSW 12:12:27 10° S visible
06 Nov 4.2 15:28:12 10° SSW 15:30:42 16° SSE 15:33:14 10° ESE visible
07 Nov 3.5 10:11:38 18° SSE 10:11:38 18° SSE 10:12:48 10° SSE visible
07 Nov 4.4 11:47:01 10° SW 11:48:04 11° SSW 11:49:09 10° S visible
07 Nov 4.3 15:04:52 10° S 15:07:16 15° SSE 15:09:41 10° ESE visible
08 Nov 2.4 08:05:48 10° NNE 08:08:10 17° ENE 08:10:37 10° E visible
08 Nov 2.1 09:42:19 10° WNW 09:45:46 45° SW 09:49:22 10° SE visible
08 Nov 4.5 11:23:24 10° SW 11:24:35 11° SSW 11:25:48 10° S visible
08 Nov 4.4 14:41:31 10° S 14:43:47 15° SSE 14:46:05 10° ESE visible
08 Nov 1.8 16:18:22 10° SW 16:22:23 65° SE 16:26:31 10° NE visible
09 Nov 2.5 07:42:32 10° NNE 07:44:44 16° ENE 07:47:00 10° E visible
09 Nov 1.9 09:18:49 10° WNW 09:22:17 48° SW 09:25:54 10° SE visible
09 Nov 4.5 10:59:45 10° SW 11:01:04 11° SSW 11:02:24 10° S visible
09 Nov 4.5 14:18:06 10° S 14:20:15 14° SSE 14:22:26 10° ESE visible
09 Nov 1.9 15:54:54 10° SW 15:58:53 61° SE 16:03:00 10° NE visible
10 Nov 1.8 08:55:17 10° WNW 08:58:45 51° SW 09:02:23 10° SE visible
10 Nov 4.5 10:36:04 10° SW 10:37:30 12° SSW 10:38:57 10° S visible
10 Nov 4.5 13:54:39 10° S 13:56:41 13° SSE 13:58:43 10° SE visible
10 Nov 2.0 15:31:23 10° SW 15:35:21 57° SE 15:39:25 10° ENE visible
11 Nov 1.7 08:31:42 10° WNW 08:35:11 55° SW 08:38:50 10° SE visible
11 Nov 4.5 10:12:21 10° SW 10:13:53 12° SSW 10:15:27 10° S visible
11 Nov 4.6 13:31:10 10° S 13:33:03 13° SSE 13:34:57 10° SE visible
11 Nov 2.1 15:07:49 10° SW 15:11:45 54° SE 15:15:47 10° ENE visible
12 Nov 1.6 08:08:04 10° NW 08:11:34 59° SW 08:15:12 10° SE visible
12 Nov 4.4 09:48:34 10° SW 09:50:13 12° SSW 09:51:54 10° S visible
12 Nov 4.6 13:07:39 10° S 13:09:22 12° SSE 13:11:07 10° SE visible
12 Nov 2.1 14:44:13 10° SW 14:48:06 50° SE 14:52:06 10° ENE visible
13 Nov 1.5 07:44:24 10° NW 07:47:53 64° SW 07:51:33 10° SE visible
13 Nov 4.4 09:24:45 10° SW 09:26:30 13° SSW 09:28:18 10° S visible
13 Nov 4.5 12:44:06 10° S 12:45:39 12° SSE 12:47:13 10° SE visible
13 Nov 2.2 14:20:34 10° SW 14:24:24 47° SE 14:28:21 10° ENE visible
13 Nov 2.5 15:59:02 10° WSW 16:02:07 21° WNW 16:05:14 10° N visible
14 Nov 4.3 09:00:54 10° SW 09:02:45 13° SSW 09:04:38 10° S visible
14 Nov 4.5 12:20:31 10° S 12:21:53 11° SSE 12:23:15 10° SE visible
14 Nov 2.3 13:56:52 10° SSW 14:00:40 44° SE 14:04:34 10° ENE visible
14 Nov 2.4 15:35:14 10° WSW 15:38:24 23° NW 15:41:38 10° N visible
